Simultaneous Nadir Overpasses (SNOs) Predictions

Prediction of SNOs between LANDSAT-8 and NOAA-19 Satellite Orbit:

Table of predicted SNOs for the next 14.0 days since TLE Epoch: 3/14/2015
Index Date (LANDSAT-8) Time (LANDSAT-8) Lat,Lon (LANDSAT-8) SZA (LANDSAT-8 ) Date (NOAA-19) Time (NOAA-19) Lat,Lon (NOAA-19) SZA (NOAA-19 ) Distance(km) Time Diff (sec)
1 03/14/2015 03:39:17 73.12, 126.29 75.71 03/14/2015 03:38:05 73.16, 125.61 75.76 22.46 72
2 03/14/2015 04:28:49 -72.89, -66.51 104.53 03/14/2015 04:29:00 -72.90, -66.57 104.52 2.05 11
3 03/16/2015 09:13:05 -72.95,-137.47 105.34 03/16/2015 09:12:30 -72.97,-137.55 105.32 2.94 35
4 03/16/2015 10:02:32 72.86, 29.99 74.56 03/16/2015 10:03:30 72.86, 29.92 74.56 2.27 58
5 03/18/2015 13:57:17 -73.28, 152.10 105.88 03/18/2015 13:56:06 -73.34, 150.77 105.81 42.86 71
6 03/18/2015 14:46:49 72.92, -40.97 73.75 03/18/2015 14:46:59 72.92, -41.04 73.75 2.19 10
7 03/20/2015 19:31:07 72.98,-111.94 72.94 03/20/2015 19:30:28 72.99,-112.02 72.95 2.90 39
8 03/20/2015 20:20:37 -72.87, 55.48 107.18 03/20/2015 20:21:28 -72.89, 55.44 107.17 2.16 51
9 03/23/2015 00:15:16 73.57, 178.17 72.67 03/23/2015 00:14:09 73.66, 175.58 72.77 81.97 67
10 03/23/2015 01:04:56 -72.94, -15.48 107.99 03/23/2015 01:04:57 -72.94, -15.50 107.99 0.64 1
11 03/23/2015 01:54:36 72.15, 150.69 71.22 03/23/2015 01:55:41 72.12, 153.46 71.18 94.55 65
12 03/25/2015 05:49:16 -73.00, -86.45 108.79 03/25/2015 05:48:26 -73.00, -86.47 108.79 0.96 50
13 03/25/2015 06:38:43 72.91,
